Location: Clinton NY
(43.0598°N, 75.3602°W)
Time: 09:30:46
(UTC-04:00)

Iridium 11 - Visible Passes

Search period start: 16 August 2017 00:00
Search period end: 26 August 2017 00:00
Orbit: 776 x 779 km, 86.4° (Epoch: 15 August)

Date Brightness Start Highest point End Pass type
(mag) Time Alt. Az. Time Alt. Az. Time Alt. Az.
16 Aug 9.3 20:36:55 10° WNW 20:37:43 10° WNW 20:38:32 10° WNW visible
17 Aug 8.0 05:20:23 10° NNE 05:24:46 26° ENE 05:29:07 10° SE visible
18 Aug 8.6 04:47:56 10° NE 04:50:54 15° ENE 04:53:52 10° ESE visible
20 Aug 7.3 05:20:10 10° NNE 05:25:00 37° E 05:29:49 10° SSE visible
21 Aug 8.2 04:47:17 10° NNE 04:51:14 21° ENE 04:55:09 10° SE visible
22 Aug 8.7 04:15:25 10° NE 04:17:19 12° ENE 04:19:12 10° E visible
23 Aug 6.5 05:20:05 10° N 05:25:12 53° E 05:30:17 10° SSE visible
24 Aug 7.6 04:46:56 10° NNE 04:51:31 30° ENE 04:56:02 10° SE visible
25 Aug 8.4 04:14:19 10° NNE 04:17:41 17° ENE 04:21:02 10° ESE visible
